Meteo Giornale » Osservazioni meteo Stati Uniti (USA) » Fort Dodge
ore: 15:56 - Osservazioni Meteo Fort Dodge
Lat. 42° 33' N Lon. 94° 11' W Alt. 354 metri s.l.m.
31 °C
Sereno
Temp. 24 Ore
21 °C
31 °C
Sud-Ovest
9.3 Km/h
Dew point 23 °C
Umidità 62 %
Visibilità 10 Km
Il sole sorge alle ore 06:40
Il sole tramonta alle ore 19:52
| Data e Ora | Cielo e Fenomeni | T °C | DP °C | Um. % | Pres. hPa | Vis. km | Vento km/h | |
|---|---|---|---|---|---|---|---|---|
| Oggi h: 15:56 | Sereno | 31 | 23 | 62 | 1012 | 10 | SO 9.3 | |
| Oggi h: 14:56 | Sereno | 30 | 22 | 62 | 1013 | 10 | N 9.3 | |
| Oggi h: 13:56 | Sereno | 29 | 23 | 70 | 1012 | 10 | O 13 | |
| Oggi h: 12:56 | Sereno | 28 | 23 | 74 | 1012 | 10 | SO 16.7 | |
| Oggi h: 11:56 | Poco Nuvoloso | 27 | 23 | 78 | 1012 | 10 | NO 9.3 | |
| Oggi h: 10:56 | Sereno | 27 | 22 | 74 | 1012 | 10 | N/NO 9.3 | |
| Oggi h: 09:56 | Sereno | 28 | 23 | 74 | 1012 | 10 | O 11.1 | |
| Oggi h: 08:56 | Sereno | 25 | 22 | 83 | 1011 | 10 | O/SO 11.1 | |
| Oggi h: 07:56 | Sereno | 22 | 21 | 94 | 1011 | 10 | SO 11.1 | |
| Oggi h: 06:56 | Sereno | 21 | 21 | 100 | 1010 | 10 | S 9.3 | |
| Oggi h: 05:56 | Sereno | 22 | 21 | 94 | 1010 | 10 | S/SO 9.3 | |
| Oggi h: 04:56 | Sereno | 22 | 21 | 94 | 1009 | 10 | N 5.5 | |
| Oggi h: 03:56 | Sereno | 22 | 22 | 100 | 1009 | 10 | N 5.5 | |
| Oggi h: 02:56 | Sereno | 22 | 22 | 100 | 1009 | 14 | N 0 | |
| Oggi h: 01:56 | Foschia | 22 | 22 | 100 | 1009 | 10 | N 0 | |
| Oggi h: 00:56 | Sereno | 23 | 23 | 100 | 1009 | 10 | N 0 | |
| Ieri h: 23:56 | Sereno | 24 | 23 | 94 | 1009 | 10 | S/SE 7.4 | |
| Ieri h: 22:56 | Sereno | 24 | 23 | 94 | 1009 | 10 | S/SE 9.3 | |
| Ieri h: 21:56 | Sereno | 24 | 23 | 94 | 1010 | 10 | SE 11.1 | |
| Ieri h: 20:56 | Sereno | 25 | 23 | 88 | 1010 | 10 | SE 11.1 | |
| Ieri h: 19:56 | Sereno | 26 | 23 | 83 | 1009 | 10 | S/SE 9.3 | |
| Ieri h: 18:56 | Sereno | 27 | 22 | 74 | 1009 | 10 | S 13 | |
| Ieri h: 17:56 | Sereno | 27 | 23 | 78 | 1009 | 10 | S 11.1 | |
| Ieri h: 16:56 | Sereno | 27 | 22 | 74 | 1009 | 10 | S 9.3 | |



